Location: Audignicourt
(49.4788°N, 3.1340°E)
Time: 07:10:49
(UTC+00:00)

Cosmos 1238 Rocket - Pass Details

Date: 15 May 2026
Orbit: 351 x 697 km, 82.9° (Epoch: 6 June)

Event Time Altitude Azimuth Distance (km) Brightness Sun altitude
Exits shadow 23:13:26 32° 99° (E) 996 3.9 -21.1°
Maximum altitude 23:13:48 32° 88° (E) 991 4.0 -21.1°
Drops below altitude 10° 23:17:41 10° 26° (NNE) 1,979 6.4 -21.2°
Sets 23:20:12 0° 17° (NNE) 2,947 7.7 -21.3°
